Weather History for KLAF - November, 2012

Change the Weather History Date:

Sunday, November 4, 2012

  Actual Average Record
Temperature  
Mean Temperature 36 °F 48 °F  
Max Temperature 46 °F 57 °F 78 °F (2003)
Min Temperature 25 °F 39 °F 18 °F (1991)
Degree Days  
Heating Degree Days 29 17  
Month to date heating degree days 105 66  
Since 1 July heating degree days 686 500  
Cooling Degree Days 0 0  
Month to date cooling degree days 0 0  
Year to date cooling degree days 1181 982  
Moisture  
Dew Point 30 °F    
Average Humidity 79    
Maximum Humidity 100    
Minimum Humidity 58    
Precipitation  
Precipitation 0.00 in 0.09 in 0.88 in (1988)
Month to date precipitation 0.08 0.37  
Year to date precipitation 26.98 31.47  
Sea Level Pressure  
Sea Level Pressure 30.21 in    
Wind  
Wind Speed 2 mph (NNE)    
Max Wind Speed 8 mph    
Max Gust Speed 12 mph    
Visibility 9 miles    
Events      
T = Trace of Precipitation, MM = Missing Value Source: NWS Daily Summary

Daily Weather History Graph

Daily Weather History Graph

Search for Another Location

Airport or City:

Trip Planner

Search our weather history database for the weather conditions in past years. The results will help you decide how hot, cold, wet, or windy it might be!

Date:

Astronomy

Nov. 04, 2012 Rise Set
Actual Time 7:21 AM EST 5:40 PM EST
Civil Twilight 6:53 AM EST 6:09 PM EST
Nautical Twilight 6:20 AM EST 6:41 PM EST
Astronomical Twilight 5:48 AM EST 7:13 PM EST
Moon 10:18 PM EST (11/4) 12:05 PM EST (11/4)
Length of Visible Light 11h 15m
Length of Day
10h 18m
Waning Gibbous, 72% of the Moon is Illuminated
Nov 4
Waning Gibbous
Nov 6
Last Quarter
Nov 13
New
Nov 20
First Quarter
Nov 28
Full

Hourly Weather History & Observations

Time (EST) Temp. Windchill Dew Point Humidity Pressure Visibility Wind Dir Wind Speed Gust Speed Precip Events Conditions
12:54 AM 33.1 °F 27.7 °F 28.9 °F 85% 30.20 in 10.0 mi North 5.8 mph - N/A   Partly Cloudy
1:54 AM 33.1 °F 30.0 °F 28.0 °F 82% 30.20 in 10.0 mi NNE 3.5 mph - N/A   Partly Cloudy
2:54 AM 28.9 °F - 27.0 °F 92% 30.20 in 10.0 mi Calm Calm - N/A   Clear
3:54 AM 30.0 °F - 27.0 °F 88% 30.20 in 10.0 mi Calm Calm - N/A   Overcast
4:54 AM 28.0 °F - 27.0 °F 96% 30.21 in 10.0 mi Calm Calm - N/A   Clear
5:54 AM 28.0 °F - 27.0 °F 96% 30.23 in 10.0 mi Calm Calm - N/A   Overcast
6:54 AM 26.1 °F 21.9 °F 25.0 °F 96% 30.22 in 6.0 mi West 3.5 mph - N/A   Scattered Clouds
7:54 AM 28.9 °F - 28.0 °F 96% 30.24 in 9.0 mi Calm Calm - N/A   Overcast
8:54 AM 32.0 °F - 30.9 °F 96% 30.24 in 8.0 mi Calm Calm - N/A   Overcast
9:54 AM 37.0 °F - 33.1 °F 86% 30.24 in 10.0 mi Calm Calm - N/A   Mostly Cloudy
10:18 AM 37.4 °F - 32.0 °F 81% 30.23 in 10.0 mi Calm Calm - N/A   Mostly Cloudy
10:54 AM 37.9 °F - 30.9 °F 76% 30.25 in 10.0 mi Calm Calm - N/A   Overcast
11:23 AM 39.2 °F - 30.2 °F 70% 30.23 in 10.0 mi Calm Calm - N/A   Overcast
11:54 AM 39.0 °F 36.8 °F 28.9 °F 67% 30.25 in 10.0 mi ESE 3.5 mph - N/A   Overcast
12:54 PM 41.0 °F - 32.0 °F 70% 30.22 in 10.0 mi Calm Calm - N/A   Overcast
1:54 PM 43.0 °F 38.2 °F 32.0 °F 65% 30.20 in 10.0 mi North 8.1 mph - N/A   Scattered Clouds
2:54 PM 46.0 °F 43.9 °F 33.1 °F 61% 30.19 in 10.0 mi North 4.6 mph - N/A   Mostly Cloudy
3:54 PM 45.0 °F - 32.0 °F 60% 30.18 in 10.0 mi Calm Calm - N/A   Clear
4:54 PM 45.0 °F - 30.9 °F 58% 30.18 in 10.0 mi Calm Calm - N/A   Clear
5:54 PM 39.9 °F - 30.9 °F 70% 30.18 in 10.0 mi Calm Calm - N/A   Clear
6:54 PM 37.9 °F 34.4 °F 30.9 °F 76% 30.19 in 10.0 mi NE 4.6 mph - N/A   Scattered Clouds
7:54 PM 34.0 °F 31.0 °F 28.9 °F 82% 30.20 in 10.0 mi NE 3.5 mph - N/A   Partly Cloudy
8:54 PM 30.9 °F - 28.0 °F 89% 30.20 in 10.0 mi Calm Calm - N/A   Clear
9:54 PM 32.0 °F - 28.9 °F 88% 30.19 in 7.0 mi Calm Calm - N/A   Clear
10:54 PM 28.9 °F 23.9 °F 27.0 °F 92% 30.20 in 6.0 mi NNE 4.6 mph - N/A   Clear